{"data":{"norad_id":63344,"intl_designator":"2025-059A","name":"YUNYAO-1 43","alt_names":[],"object_type":"PAYLOAD","status":"ACTIVE","operator":null,"country":"PRC","launch_date":"2025-03-21","launch_site_code":"JSC","launch_vehicle":null,"mission":null,"orbit_class":"UNKNOWN","rcs_meters":null,"size_class":null,"mass_kg":null,"dimensions":null,"purposes":[],"wikipedia_slug":null,"has_3d_model":false,"image_url":null,"decayed_at":null,"tle_current":{"epoch":"2026-09-22T22:51:26.559936Z","epoch_age_seconds":94374,"freshness":"FRESH","line1":"1 63344U 25059A   26265.95239074  .00001815  00000+0  11115-3 0  9997","line2":"2 63344  97.6138  86.8520 0014131 172.2871 187.8579 15.11402747 83067","mean_motion":15.11402747,"eccentricity":0.0014131,"inclination_deg":97.6138,"raan_deg":86.852,"arg_perigee_deg":172.2871,"mean_anomaly_deg":187.8579,"bstar":0.00011115,"rev_number":8306,"period_min":95.275729970603,"perigee_km":522.15656401423,"apogee_km":541.6857704064,"semimajor_km":6910.0581672103,"source":"CELESTRAK","updated_at":"2026-09-23T09:00:22.026245Z"}}}